Location: *
(39.6167°S, 171.5333°W)
Time: 19:30:24
(UTC+00:00)

Cosmos 2058 Rocket - Pass Details

Date: 13 May 2021
Orbit: 611 x 638 km, 82.5° (Epoch: 20 June)

Event Time Altitude Azimuth Distance (km) Brightness Sun altitude
Rises 16:11:11 0° 353° (N) 2,924 6.5 -25.2°
Enters shadow 16:12:26 - 352° (N) 2,415 6.0 -25.0°
Exits shadow 16:17:24 70° 338° (NNW) 682 3.1 -24.1°
Maximum altitude 16:17:54 85° 265° (W) 647 2.9 -24.0°
Drops below altitude 10° 16:22:26 10° 174° (S) 2,034 5.7 -23.1°
Sets 16:24:41 0° 173° (S) 2,945 6.6 -22.7°
